STARLINK-11692, 64381

Orbit data source: Space-Track

STARLINK-11692, 64381 is a payload satellite owned by SpaceX/Seattle (US) in LEO that was launched on Fri, 13 Jun 2025 UTC via an FALCON 9 launch vehicle from the Air Force Eastern Test Range (AFETR). Payload-class satellites include a variety of spacecraft equipped with specific instruments for various scientific and technological missions. These include communications satellites like Starlink; space stations such as the ISS; scientific satellites like the Hubble; Earth observation satellites from companies like Planet Labs, Umbra, and HawkEye 360; GPS; miniature CubeSats for education and research; and military/defense satellites.

Loading next visibility...
Identifier
64381, 2025-127M
Orbit
LEO
Country
Flag of USUS
Related business
Manufacturer
SpaceX/Seattle
Mission
Operational Commercial Communications
Bus & Motor
STARLINK V2MD, Unknown motor
Mass
960 kg wet, ~910 kg dry
Launch date (UTC)
2025-06-13 (10 months ago)
Launch vehicle
FALCON 9
Launch site
Air Force Eastern Test Range (AFETR)
Object type
Payload
Rocket body
Debris
Shape & HBR
Box + 2 Pan, 18.1 m
Radar Cross Section
36.964 m², Large (>1 m²)

Expand to show TLE details & history
Last TLE update: 19 hours ago

TLE from 19 hours ago
0 STARLINK-11692
1 64381U 25127M   26094.88782370  .00185281  00000-0  14163-2 0  9995
2 64381  42.9980 286.5327 0001439   5.0371 355.0511 15.70825822 47733
Epoch: 2026-04-04T21:18Z
TLE epoch observation values (Epoch: 2026-04-04T21:18:27.967Z)
Latitude
-0.00002°
Longitude
133.71501°
Altitude
355.341 km
Speed
7.698 km/s
True Right ascension
19h 06m 07s
True Declination
0° 00' 00"
Sunlit
Object was in daylight at epoch
Visualization orbit readout
Latitude
Unknown
Longitude
Unknown
Altitude
Unknown
Speed
Unknown
Apparent Right ascension
Unknown
Apparent Declination
Unknown
Sunlit
N/A
Visualization observer readout
Local Sidereal Time
22:14:56
Azimuth
Unknown
Elevation
Unknown
Doppler factor
Unknown
Orbital elements
Apogee altitude
359.487 km
Perigee altitude
357.548 km
Semi-major axis
6,736.655 km
Eccentricity
0.00014
Inclination
42.998°
RAAN
286.5327°
Arg. of periapsis
5.0371°
True anomaly
355.04968°
Mean anomaly
355.0511°
Eccentric anomaly
355.05039°
Mean motion
3.92534 °/min
Orbital period
91.71 mins
BSTAR
0.0014163
Loading maneuver chart data...
Computing Atmospheric mass density...
Loading historical data...
Loading historical data...
Loading historical data...
Loading historical data...
Loading historical data...
Loading historical data...
Loading historical data...

Documentation

Showing up to 5 results
|